Location: Bluff Heights
(33.7692°N, 118.1592°W)
Time: 00:28:26
(UTC+00:00)

Tiros 1 - Pass Details

Date: 24 July 2021
Orbit: 630 x 663 km, 48.4° (Epoch: 20 September)

Event Time Altitude Azimuth Distance (km) Brightness Sun altitude
Rises 03:21:55 0° 208° (SSW) 2,966 10.6 -5.0°
Reaches altitude 10° 03:24:25 10° 199° (SSW) 2,054 9.6 -5.5°
Maximum altitude 03:28:43 35° 134° (SE) 1,051 7.8 -6.3°
Drops below altitude 10° 03:32:59 10° 69° (ENE) 2,044 9.4 -7.0°
Sets 03:35:28 0° 60° (ENE) 2,951 10.2 -7.5°
